sat.trackr.live / text

‹ back to catalog

UNKNOWN

NORAD 87405

UNKNOWN UNKNOWN UNKNOWN

§ Identity

Operator
Country
Launch date
Launch site
Launch vehicle
Mass (kg)
RCS (m²)

External: N2YO · Heavens-Above

§ Orbital elements

Epoch: 2026-05-20T04:10:37.955424Z

Period
103.08 min
Inclination
82.7496°
Eccentricity
0.0057948
Mean motion
13.96990669 rev/d
Perigee alt
862.0 km
Apogee alt
946.4 km
Semi-major
7,282.4 km
B*
2.6390e-4
RAAN
295.0656°
Arg perigee
233.6682°
Mean anomaly
125.9129°
Rev number
63,327

§ Raw data

UNKNOWN1 87405U          26140.17405041  .00000388  00000+0  26390-3 0  99902 87405  82.7496 295.0656 0057948 233.6682 125.9129 13.96990669633276

JSON: /api/v1/satellites/87405 · /tle

For live sub-satellite position, see the globe view (requires WebGL).

§ Visibility from observer

Set your observer location to see the next 7 days of passes ≥ 10°. The values pass through the URL so the page stays shareable.

No JS? Fill the form by hand. The geolocation button needs JavaScript.